Location: *
(2.5500°S, 65.9667°W)
Time: 16:16:51
(UTC+00:00)

A-11 Canister half - Pass Details

Date: 21 April 2024
Orbit: 1525 x 1683 km, 47.3° (Epoch: 21 May)

Event Time Altitude Azimuth Distance (km) Brightness Sun altitude
Exits shadow 06:06:31 14° 62° (ENE) 3,546 11.1 -62.6°
Drops below altitude 10° 06:07:33 10° 60° (ENE) 3,848 11.4 -62.3°
Sets 06:10:53 0° 54° (NE) 4,854 12.0 -61.5°
